Regional Weather Roundup
Issued by NWS Little Rock, AR

Home | Current Version | Previous Version | Text Only | Print | Product List | Glossary On
Versions: 1 2 3 4 5 6 7 8 9 10 11 12 13 14 15 16 17 18 19 20 21 22 23 24 25 26 27 28 29 30 31 32 33 34 35 36 37 38 39 40 41 42 43 44 45 46 47 48 49 50
000
ASUS44 KLZK 011005
RWRLZK

WEATHER ROUNDUP FOR ARKANSAS
NATIONAL WEATHER SERVICE LITTLE ROCK AR
500 AM CDT SUN MAY 01 2016

NOTE: "FAIR" INDICATES FEW OR NO CLOUDS BELOW 12,000 FEET WITH NO
SIGNIFICANT WEATHER AND/OR OBSTRUCTIONS TO VISIBILITY.

ARZ001-003-010-029-011100-
NORTHWEST ARKANSAS

CITY           SKY/WX    TMP DP  RH WIND       PRES   REMARKS
FAYETTEVILLE   CLEAR     47  47 100 CALM      29.96R
FORT SMITH     CLEAR     56  48  74 CALM      29.93S
HARRISON       CLEAR     54  49  83 NW7       29.93R
BENTONVILLE    CLEAR    N/A N/A N/A CALM      29.94F
ROGERS         CLEAR     48  47  96 CALM      29.95S
SILOAM SPGS    CLEAR     45  37  76 E3        29.95F
HIGHFILL       CLEAR     49  47  93 CALM      29.94S
$$

ARZ004-005-016-011100-
NORTH CENTRAL ARKANSAS

CITY           SKY/WX    TMP DP  RH WIND       PRES   REMARKS
BATESVILLE     PTCLDY    59  57  94 CALM      29.89R
FLIPPIN        CLEAR    N/A N/A N/A CALM      29.88S
MTN HOME       CLEAR     56  55  97 CALM      29.89S
$$

ARZ040-041-011100-
WEST CENTRAL ARKANSAS

CITY           SKY/WX    TMP DP  RH WIND       PRES   REMARKS
MENA           CLEAR     61  55  82 N3        29.92S
MOUNT IDA      CLEAR     58  56  93 CALM      29.89R
$$

ARZ009-017-025-026-028-011100-
NORTHEAST ARKANSAS

CITY           SKY/WX    TMP DP  RH WIND       PRES   REMARKS
CORNING          N/A     63  63 100 CALM      29.87S
JONESBORO      PTCLDY    62  61  96 CALM      29.87R
NEWPORT        PTCLDY    63  63 100 NW6       29.89R
WALNUT RIDGE   CLEAR     61  57  88 SW3       29.87R
BLYTHEVILLE    CLOUDY    65  63  93 CALM      29.89R
$$

ARZ022-023-033-042-044-011100-
CENTRAL ARKANSAS

CITY           SKY/WX    TMP DP  RH WIND       PRES   REMARKS
LITTLE ROCK    MOCLDY    67  63  87 NW9       29.88R
N LITTLE ROCK    N/A     64  62  94 N6        29.87R
JACKSONVILLE   PTCLDY    65  65  99 W5        29.88R
SEARCY         MOCLDY    63  62  97 N3        29.90R
HOT SPRINGS    CLEAR     63  60  90 CALM      29.89S
RUSSELLVILLE   CLEAR     62  60  93 NW3       29.90R
$$

ARZ036-011100-
EAST ARKANSAS

CITY           SKY/WX    TMP DP  RH WIND       PRES   REMARKS
WEST MEMPHIS   CLOUDY    65  65 100 S7        29.87S
$$

ARZ050-053-066-070-073-011100-
SOUTHWEST ARKANSAS

CITY           SKY/WX    TMP DP  RH WIND       PRES   REMARKS
ARKADELPHIA    FAIR      65  65 100 N3        29.89R
CAMDEN         CLOUDY    68  66  94 NW5       29.87R FOG
TEXARKANA      PTCLDY    64  63  96 N6        29.87S
EL DORADO      CLOUDY    68  68 100 NW5       29.86R
DE QUEEN       CLEAR     59  57  93 CALM      29.88R
$$

ARZ056-057-069-011100-
SOUTHEAST ARKANSAS

CITY           SKY/WX    TMP DP  RH WIND       PRES   REMARKS
PINE BLUFF     CLOUDY    68  66  93 SW3       29.88R
STUTTGART      CLOUDY    68  64  88 CALM      29.88R
MONTICELLO     CLOUDY    68  66  93 CALM      29.86S

$$





USA.gov is the U.S. government's official web portal to all federal, state and local government web resources and services.